Rbgn^[z[y[W
メイン
   新天体発見情報
     Comet P/2017 R1 (PANSTARRS)
投稿するにはまず登録を

スレッド表示 | 新しいものから 前のトピック | 次のトピック | 下へ
投稿者 スレッド
佐藤裕久
投稿日時: 2017-10-5 2:14
モデレータ
登録日: 2005-6-12
居住地: 日本
投稿: 1822
オンライン
Comet P/2017 R1 (PANSTARRS)

R. Weryk (ハワイ大学天文学研究所)によると、彼とE. Lillyは、9月14.4日UT、Haleakalaにある
1.8-m Pan-STARRS1望遠鏡で得た4枚のw-バンドCCD露出から天体を発見した(その後、以前のPan-
STARRS1の観測も見つけた)。
明らかに南西に伸びる8"の尾が伸びており、この彗星の頭部のFWHM(半値全幅)は最大約1".5で比較
した隣接する恒星は0".9であった。
M. Micheliと R. J. Wainscoatは、9月15.38日UT、WainscoatとC. CrowderがMauna Keaにある3.6-m 
Canada-France-Hawaii Telescopeで得た3枚の60秒のgri-フィルターCCD画像から彗星状であると確
認し、約p.a. 245°に10"の広い尾があり、コマのFWHMは0".85のシーイングで1".1であっ たと記し
た。
小惑星センターのPCCP webpageに公表後、佐藤英貴氏(東京都文京区, iTelescope天文台,9月15.55-
15.56日UT, 60秒露出16枚のスタック, 0.51-m f/6.8 アストログラフ, Siding Spring, 遠隔操作:
強い集光のある8" のコマと、p.a. 285°に伸びた15"尾がある。4".9の円形範囲で測定したこの彗星
のw-バンド全光度は19.9等であった)が彗星状と観測した。

発見位置は次のとおり、 

     2017 UT             R.A. (2000) Decl.       Mag.
     July 30.49462   23 42 52.69   - 2 59 55.9   21.5
          30.50666   23 42 52.60   - 2 59 57.1   21.2
          30.51860   23 42 52.49   - 2 59 58.3   21.4
          30.53051   23 42 52.40   - 2 59 59.5   21.9
     Aug.  1.53132   23 42 36.24   - 3 03 32.0   22.3
           1.54321   23 42 36.11   - 3 03 33.0   22.5
           1.55510   23 42 35.97   - 3 03 34.5   22.0
           1.56701   23 42 35.86   - 3 03 35.9   22.3
           3.52513   23 42 15.90   - 3 07 30.7   21.2
           3.53589   23 42 15.76   - 3 07 32.2   21.4
           3.54668   23 42 15.64   - 3 07 33.4   21.1
           3.55743   23 42 15.50   - 3 07 34.6   21.3
          17.47615   23 38 03.57   - 3 47 07.7   21.6
          17.48721   23 38 03.27   - 3 47 09.8   21.9
          17.49826   23 38 02.99   - 3 47 12.4   21.7
          17.50933   23 38 02.70   - 3 47 14.7   21.7
     Sept.14.40860   23 22 54.11   - 5 45 26.0   21.2
          14.42057   23 22 53.65   - 5 45 29.3   21.4
          14.43251   23 22 53.22   - 5 45 32.6   21.1
          14.44444   23 22 52.77   - 5 45 35.8   21.3

楕円軌道要素と位置推算表は次のとおり、

Orbital elements:
    P/2017 R1 (PANSTARRS)
Epoch 2017 Apr. 3.0 TT = JDT 2457846.5
T 2017 Apr. 8.83434 TT                                  MPCW
q   3.3280894            (2000.0)            P               Q
n   0.11741795     Peri.  178.49646     +0.78965608     +0.61297235
a   4.1302823      Node   143.65546     -0.56338850     +0.74159114
e   0.1942223      Incl.    2.57364     -0.24297463     +0.27259399
P   8.39
From 56 observations 2017 July 30-Sept. 19, mean residual 0".4.

    P/2017 R1 (PANSTARRS)
Epoch 2025 Sept. 8.0 TT = JDT 2460926.5
T 2025 Sept.  9.12690 TT                                MPCW
q   3.3285839            (2000.0)            P               Q
n   0.11739230     Peri.  178.98188     +0.79416483     +0.60711709
a   4.1308838      Node   143.59356     -0.55787314     +0.74574555
e   0.1942199      Incl.    2.57510     -0.24099748     +0.27435818
P   8.40
From 56 observations 2017 July 30-Sept. 19, mean residual 0".4.

    P/2017 R1 (PANSTARRS)
Epoch 2017 Sept. 4.0 TT = JDT 2458000.5
T 2017 Apr. 8.86360 TT                                  MPCW
q   3.3280933            (2000.0)            P               Q
n   0.11737423     Peri.  178.50130     +0.78970184     +0.61291344
a   4.1313078      Node   143.65489     -0.56333293     +0.74163235
e   0.1944214      Incl.    2.57350     -0.24295475     +0.27261435
P   8.40
From 56 observations 2017 July 30-Sept. 19, mean residual 0".4.

Ephemeris:
    P/2017 R1 (PANSTARRS)
Date    TT    R. A. (2000) Decl.     Delta      r     Elong.  Phase   m1
2017 08 23    23 35 35.7 -04 07 43   2.4211  3.3753   157.0     6.7  20.7
...
2017 09 07    23 27 22.0 -05 12 08   2.3826  3.3860   173.7     1.9  20.7
...
2017 09 15    23 22 32.7 -05 48 02   2.3877  3.3921   176.6     1.0  20.7
...
2017 09 21    23 18 58.8 -06 13 55   2.4036  3.3969   170.0     2.9  20.7
2017 09 22    23 18 24.0 -06 18 04   2.4072  3.3977   168.9     3.3  20.7
2017 09 23    23 17 49.7 -06 22 10   2.4111  3.3986   167.8     3.6  20.7
...
2017 09 29    23 14 33.5 -06 45 20   2.4405  3.4035   161.0     5.5  20.8
...
2017 10 07    23 10 47.1 -07 11 36   2.4946  3.4104   152.2     7.9  20.8
...
2017 10 22    23 06 10.9 -07 42 49   2.6371  3.4241   136.1    11.6  21.0

(CBET 4430、MPEC 2017-S97)
スレッド表示 | 新しいものから 前のトピック | 次のトピック | トップ

投稿するにはまず登録を
 
© 1999-2013 Tsutomu Seki.